IRIDIUM 103

Last updated on Tue Sep 22 2026 00:03:20 GMT+0000 (Coordinated Universal Time)

1 41918U 17003B 26264.36336012 .00000162 00000+0 50929-4 0 9995 2 41918 86.3950 48.2131 0002249 88.8934 271.2520 14.34218113507012
UTC large
Height (km)
Speed (km/s)
/
Latitude / Longitude
Inclination (degrees)
Orbital Period (minutes)
Azimuth
Elevation
Range (km)
Doppler Factor

Next 0 passes for location: London (51.5072 / 0.1276)

No passes found over London.
IRIDIUM 103